Weather in Novye Pichingushi

Russia / Republic of Mordovia     54°34′02″N   43°41′54″E
temp.,
°C
wind,
m/s
gust,
m/s
humid.,
%
clouds,
%
prec.,
mm/h
press.,
hPa
HPBL,
m
1 august, sun
sun100:00+20w38657 0.0 1009148
03:00+17w3576100 0.0 101183
06:00+18w1275100 0.0 101274
09:00+23wsw1253100 0.0 1012417
12:00+27wsw344589 0.0 10121576
15:00+28w353781 0.0 10122015
18:00+26nw1252100 0.0 101223
21:00+21ese225788 0.0 101215
2 august, mon
mon200:00+20sse3561100 0.0 101277
03:00+19sse496543 0.0 1012138
06:00+21s512675 0.0 1012252
09:00+27ssw58495 0.0 1012574
12:00+31ssw56383 0.0 10111424
15:00+32s56310 0.0 10102664
18:00+27se58601 0.0 1009222
21:00+23se346727 1.1 100837
3 august, tue
tue300:00+21se4681100 0.1 100881
03:00+21ssw41373100 0.1 1007252
06:00+21sw237577 0.1 100759
09:00+25sw465971 0.1 1007505
12:00+26wsw51052100 0.0 1008967
15:00+25ssw686012 0.1 1008939
18:00+26ssw576137 0.2 1007767
21:00+20nw498991 1.4 1009218
4 august, wed
wed400:00+18wnw3694100 0.6 1010171
03:00+17wnw359712 0.9 1011123
06:00+17wnw36931 0.0 1012227
09:00+21nw45680 0.0 1013803
12:00+24wnw454826 0.0 10131827
15:00+25wnw454062 0.0 10132078
18:00+22nw6948100 0.0 1014412
21:00+19nw3657100 0.0 1015140
5 august, thu
thu500:00+17n226744 0.0 101616
03:00+17n246596 0.0 101795
06:00+18ne126495 0.0 1017100
09:00+22n23489 0.0 1018774
12:00+22n4344100 0.0 1018604
15:00+24n233699 0.0 10171365
18:00+23wnw234495 0.0 1017175
21:00+19nnw23545 0.0 101841